Regional Weather Roundup
Issued by NWS

Home | Current Version | Previous Version | Graphics & Text | Print | Product List | Glossary On
Versions: 1 2 3 4 5 6 7 8 9 10 11 12 13 14 15 16 17 18 19 20 21 22 23 24 25 26 27 28 29 30 31 32 33 34 35 36 37 38 39 40 41 42 43 44 45 46 47 48 49 50
000
ASUS43 KLSX 281907
RWRMO

WEATHER SUMMARY FOR MISSOURI
NATIONAL WEATHER SERVICE SPRINGFIELD MO
200 PM CDT THU AUG 28 2014

NOTE: "FAIR" INDICATES FEW OR NO CLOUDS BELOW 12,000 FEET WITH NO
       SIGNIFICANT WEATHER AND/OR OBSTRUCTIONS TO VISIBILITY.
       CURRENT SKY AND/OR WEATHER CONDITIONS ARE NOT AVAILABLE FOR
       CHILLICOTHE AND FARMINGTON.

MOZ001>031-035>038-043-044-053-054-282000-
...NORTHERN AND WESTERN MISSOURI...

CITY           SKY/WX    TMP DP  RH WIND       PRES   REMARKS
KANSAS CTY INT PTSUNNY   90  71  53 S9        29.94F HX  96
KANSAS C DTWN  PTSUNNY   91  68  46 SW6       29.92F HX  95
LEE`S SUMMIT   MOSUNNY   89  70  53 S7        29.96F HX  94
ST JOSEPH      MOSUNNY   87  74  64 S5        29.92F HX  95
CHILLICOTHE      N/A     80  73  79 SE7       29.97F
KIRKSVILLE     PTSUNNY   79  74  84 W10       29.99F

$$
MOZ066>068-077>081-088>096-101>105-282000-
...SOUTHWEST MISSOURI...

CITY           SKY/WX    TMP DP  RH WIND       PRES   REMARKS
SPRINGFIELD    MOSUNNY   90  62  39 SE13G18   29.99F HX  90
JOPLIN         MOSUNNY   92  64  39 SE7G18    29.97F HX  93

$$
MOZ032>034-039>042-045>050-055>058-069>072-282000-
...CENTRAL MISSOURI...

CITY           SKY/WX    TMP DP  RH WIND       PRES   REMARKS
COLUMBIA       SUNNY     92  68  45 S12       29.98F HX  96
JEFFERSON CITY SUNNY     91  68  46 S10G16    29.97F HX  95
ROLLA          MOSUNNY   91  66  43 S12G17    30.00F HX  93
SEDALIA        PTSUNNY   92  71  50 S12       29.98F HX  98
WHITEMAN AFB   MOSUNNY   89  71  55 S10       29.97F HX  95
OSAGE BEACH    PTSUNNY   91  66  43 S7        29.98F HX  94

$$
MOZ051-052-059>065-282000-
...EAST CENTRAL MISSOURI...

CITY           SKY/WX    TMP DP  RH WIND       PRES   REMARKS
ST LOUIS INTL  MOSUNNY   90  74  59 VRB5      30.01F HX  99
SPIRIT OF STL  PTSUNNY   89  73  59 VRB3      29.98F HX  97
ST CHARLES     MOSUNNY   88  73  61 VRB6      29.99F HX  95

$$
MOZ072>076-082>087-097>100-106>115-282000-
...SOUTH CENTRAL AND SOUTHEAST MISSOURI...

CITY           SKY/WX    TMP DP  RH WIND       PRES   REMARKS
CAPE GIRARDEAU MOSUNNY   88  74  63 CALM      29.98F HX  96
FARMINGTON     PTSUNNY   90  70  51 S8        30.03F HX  95
POPLAR BLUFF   SUNNY     91  67  44 SW9       29.98F HX  94
WEST PLAINS    MOSUNNY   90  62  39 SE12G20   30.03F HX  90

$$



USA.gov is the U.S. government's official web portal to all federal, state and local government web resources and services.